| time (UTC) | temp C | wind direction | speed KPH | gust KPH | rain 1hr cm | rain 24hr cm | rain mn cm | humidity % | barometer mb |
| 20260509173327 | 2 | 0 | 0.0 | 0.0 | 0.00 | 0.00 | 0.00 | 89 | 1017.5 |
| 20260509171827 | 2 | 0 | 0.0 | 0.0 | 0.00 | 0.00 | 0.00 | 89 | 1017.2 |
| 20260509170327 | 3 | 0 | 0.0 | 0.0 | 0.00 | 0.00 | 0.00 | 89 | 1017.0 |
| 20260509164828 | 2 | 0 | 0.0 | 0.0 | 0.00 | 0.00 | 0.00 | 88 | 1017.1 |
| 20260509163327 | 3 | 0 | 0.0 | 0.0 | 0.00 | 0.00 | 0.00 | 88 | 1017.0 |
| 20260509161828 | 3 | 0 | 0.0 | 0.0 | 0.00 | 0.00 | 0.00 | 88 | 1016.8 |
| 20260509160328 | 3 | 0 | 0.0 | 0.0 | 0.00 | 0.00 | 0.00 | 87 | 1016.7 |
| 20260509154829 | 3 | 0 | 0.0 | 0.0 | 0.00 | 0.00 | 0.00 | 87 | 1016.9 |
| 20260509153328 | 3 | 0 | 0.0 | 0.0 | 0.00 | 0.00 | 0.00 | 87 | 1016.9 |
| 20260509151828 | 3 | 0 | 0.0 | 0.0 | 0.00 | 0.00 | 0.00 | 86 | 1016.8 |
| 20260509150328 | 4 | 0 | 0.0 | 0.0 | 0.00 | 0.00 | 0.00 | 85 | 1016.7 |
| 20260509144827 | 4 | 0 | 0.0 | 0.0 | 0.00 | 0.00 | 0.00 | 84 | 1016.8 |
| 20260509143327 | 4 | 0 | 0.0 | 0.0 | 0.00 | 0.00 | 0.00 | 84 | 1016.7 |
| 20260509141828 | 4 | 0 | 0.0 | 0.0 | 0.00 | 0.00 | 0.00 | 82 | 1016.7 |
| 20260509140328 | 4 | 0 | 0.0 | 0.0 | 0.00 | 0.00 | 0.00 | 82 | 1016.4 |
| 20260509134827 | 4 | 0 | 0.0 | 0.0 | 0.00 | 0.00 | 0.00 | 80 | 1016.5 |
| 20260509133329 | 5 | 0 | 0.0 | 0.0 | 0.00 | 0.00 | 0.00 | 79 | 1016.5 |
| 20260509131828 | 5 | 0 | 0.0 | 0.0 | 0.00 | 0.00 | 0.00 | 78 | 1016.4 |
| 20260509130327 | 5 | 0 | 0.0 | 0.0 | 0.00 | 0.00 | 0.00 | 78 | 1016.3 |
| 20260509124828 | 5 | 0 | 0.0 | 0.0 | 0.00 | 0.00 | 0.00 | 76 | 1016.1 |
| 20260509123327 | 5 | 0 | 0.0 | 0.0 | 0.00 | 0.00 | 0.00 | 73 | 1016.3 |
| 20260509121827 | 6 | 0 | 0.0 | 0.0 | 0.00 | 0.00 | 0.00 | 73 | 1016.1 |
| 20260509120329 | 6 | 0 | 0.0 | 0.0 | 0.00 | 0.00 | 0.00 | 71 | 1015.9 |
| 20260509114828 | 6 | 0 | 0.0 | 0.0 | 0.00 | 0.00 | 0.00 | 71 | 1015.6 |
| 20260509113327 | 7 | 0 | 0.0 | 0.0 | 0.00 | 0.00 | 0.00 | 68 | 1015.5 |
| 20260509111829 | 7 | 0 | 0.0 | 0.0 | 0.00 | 0.00 | 0.00 | 64 | 1015.2 |
| 20260509110328 | 7 | 0 | 0.0 | 0.0 | 0.00 | 0.00 | 0.00 | 62 | 1015.0 |
| 20260509104827 | 8 | 0 | 0.0 | 0.0 | 0.00 | 0.00 | 0.00 | 57 | 1014.6 |
| 20260509103329 | 9 | 0 | 0.0 | 0.0 | 0.00 | 0.00 | 0.00 | 57 | 1014.5 |
| 20260509101828 | 10 | 0 | 0.0 | 0.0 | 0.00 | 0.00 | 0.00 | 52 | 1014.0 |
| 20260509100327 | 10 | 0 | 0.0 | 0.0 | 0.00 | 0.03 | 0.00 | 49 | 1013.7 |
| 20260509094828 | 11 | 0 | 0.0 | 0.0 | 0.00 | 0.05 | 0.00 | 46 | 1013.8 |
| 20260509093328 | 12 | 0 | 0.0 | 0.0 | 0.00 | 0.05 | 0.00 | 41 | 1013.4 |
| 20260509091827 | 13 | 0 | 0.0 | 0.0 | 0.00 | 0.05 | 0.00 | 35 | 1013.1 |
| 20260509090329 | 15 | 0 | 0.0 | 0.0 | 0.00 | 0.05 | 0.00 | 30 | 1012.9 |
| 20260509084828 | 16 | 0 | 0.0 | 0.0 | 0.00 | 0.05 | 0.00 | 25 | 1012.8 |
| 20260509081828 | 17 | 0 | 0.0 | 0.0 | 0.00 | 0.05 | 0.00 | 22 | 1012.7 |
| 20260509080327 | 17 | 0 | 0.0 | 0.0 | 0.00 | 0.05 | 0.00 | 20 | 1012.6 |
| 20260509074828 | 18 | 0 | 0.0 | 0.0 | 0.00 | 0.05 | 0.00 | 20 | 1012.4 |
| 20260509073327 | 18 | 0 | 0.0 | 0.0 | 0.00 | 0.05 | 0.00 | 20 | 1012.1 |
| 20260509071827 | 18 | 0 | 0.0 | 0.0 | 0.00 | 0.05 | 0.00 | 20 | 1011.8 |
| 20260509070329 | 18 | 0 | 0.0 | 0.0 | 0.00 | 0.05 | 0.00 | 21 | 1011.4 |
| 20260509064828 | 18 | 0 | 0.0 | 0.0 | 0.00 | 0.05 | 0.00 | 21 | 1011.6 |
| 20260509063327 | 18 | 0 | 0.0 | 0.0 | 0.00 | 0.05 | 0.00 | 20 | 1011.4 |
| 20260509061828 | 18 | 0 | 0.0 | 0.0 | 0.00 | 0.05 | 0.00 | 19 | 1011.4 |
| 20260509061217 | 18 | 0 | 0.0 | 0.0 | 0.00 | 0.05 | 0.00 | 20 | 1011.3 |
| 20260509060646 | 18 | 0 | 0.0 | 0.0 | 0.00 | 0.05 | 0.00 | 19 | 1011.2 |
| 20260509055112 | 18 | 0 | 0.0 | 0.0 | 0.00 | 0.05 | 0.00 | 20 | 1011.2 |
| 20260509053613 | 18 | 0 | 0.0 | 0.0 | 0.00 | 0.05 | 0.00 | 20 | 1011.2 |
| 20260509052113 | 18 | 0 | 0.0 | 0.0 | 0.00 | 0.05 | 0.00 | 19 | 1011.1 |
| 20260509050613 | 18 | 0 | 0.0 | 0.0 | 0.00 | 0.05 | 0.00 | 19 | 1010.7 |
| 20260509045112 | 18 | 0 | 0.0 | 0.0 | 0.00 | 0.05 | 0.00 | 19 | 1010.8 |
| 20260509043612 | 18 | 0 | 0.0 | 0.0 | 0.00 | 0.05 | 0.00 | 20 | 1011.0 |
| 20260509042113 | 18 | 0 | 0.0 | 0.0 | 0.00 | 0.05 | 0.00 | 22 | 1011.0 |
| 20260509040613 | 18 | 0 | 0.0 | 0.0 | 0.00 | 0.05 | 0.00 | 21 | 1010.8 |
| 20260509035113 | 18 | 0 | 0.0 | 0.0 | 0.00 | 0.05 | 0.00 | 21 | 1011.4 |
| 20260509033613 | 18 | 0 | 0.0 | 0.0 | 0.00 | 0.05 | 0.00 | 21 | 1011.0 |
| 20260509032112 | 18 | 0 | 0.0 | 0.0 | 0.00 | 0.05 | 0.00 | 22 | 1011.0 |
| 20260509030612 | 18 | 0 | 0.0 | 0.0 | 0.00 | 0.05 | 0.00 | 27 | 1010.9 |
| 20260509025112 | 17 | 0 | 0.0 | 0.0 | 0.00 | 0.05 | 0.00 | 30 | 1011.0 |
| 20260509023612 | 17 | 0 | 0.0 | 0.0 | 0.00 | 0.05 | 0.00 | 30 | 1011.3 |
| 20260509022113 | 17 | 0 | 0.0 | 0.0 | 0.00 | 0.05 | 0.00 | 30 | 1011.2 |
| 20260509020613 | 16 | 0 | 0.0 | 0.0 | 0.00 | 0.05 | 0.00 | 30 | 1011.5 |
| 20260509015112 | 15 | 0 | 0.0 | 0.0 | 0.00 | 0.05 | 0.00 | 31 | 1011.4 |
| 20260509013613 | 15 | 0 | 0.0 | 0.0 | 0.00 | 0.05 | 0.00 | 32 | 1011.4 |
| 20260509012112 | 16 | 0 | 0.0 | 0.0 | 0.00 | 0.05 | 0.00 | 38 | 1011.3 |
| 20260509010613 | 15 | 0 | 0.0 | 0.0 | 0.00 | 0.05 | 0.00 | 38 | 1011.5 |
| 20260509005112 | 16 | 0 | 0.0 | 0.0 | 0.00 | 0.05 | 0.00 | 39 | 1011.3 |
| 20260509003613 | 16 | 0 | 0.0 | 0.0 | 0.00 | 0.05 | 0.00 | 39 | 1010.9 |
| 20260509002113 | 15 | 0 | 0.0 | 0.0 | 0.00 | 0.05 | 0.00 | 41 | 1010.9 |
| 20260509000613 | 15 | 0 | 0.0 | 0.0 | 0.00 | 0.05 | 0.00 | 38 | 1010.5 |
| 20260508235112 | 15 | 0 | 0.0 | 0.0 | 0.00 | 0.05 | 0.00 | 39 | 1010.5 |
| 20260508233614 | 15 | 0 | 0.0 | 0.0 | 0.00 | 0.05 | 0.00 | 38 | 1010.5 |
| 20260508232113 | 16 | 0 | 0.0 | 0.0 | 0.00 | 0.05 | 0.00 | 36 | 1010.0 |
| 20260508230613 | 15 | 0 | 0.0 | 0.0 | 0.00 | 0.05 | 0.00 | 44 | 1009.4 |
| 20260508225112 | 16 | 0 | 0.0 | 0.0 | 0.00 | 0.05 | 0.00 | 44 | 1008.7 |
| 20260508223613 | 14 | 0 | 0.0 | 0.0 | 0.00 | 0.05 | 0.00 | 48 | 1008.7 |
| 20260508222113 | 15 | 0 | 0.0 | 0.0 | 0.00 | 0.05 | 0.00 | 44 | 1008.2 |
| 20260508220614 | 13 | 0 | 0.0 | 0.0 | 0.00 | 0.05 | 0.00 | 53 | 1007.8 |
| 20260508215113 | 12 | 0 | 0.0 | 0.0 | 0.00 | 0.05 | 0.00 | 57 | 1007.8 |
| 20260508213612 | 11 | 0 | 0.0 | 0.0 | 0.00 | 0.05 | 0.00 | 62 | 1007.8 |
| 20260508212113 | 10 | 0 | 0.0 | 0.0 | 0.00 | 0.05 | 0.00 | 68 | 1007.6 |
| 20260508210613 | 9 | 0 | 0.0 | 0.0 | 0.00 | 0.05 | 0.00 | 76 | 1007.0 |
| 20260508205112 | 7 | 0 | 0.0 | 0.0 | 0.00 | 0.05 | 0.00 | 89 | 1007.1 |
| 20260508203613 | 4 | 0 | 0.0 | 0.0 | 0.00 | 0.05 | 0.00 | 91 | 1006.5 |
| 20260508202113 | 4 | 0 | 0.0 | 0.0 | 0.00 | 0.05 | 0.00 | 92 | 1006.2 |
| 20260508200614 | 4 | 0 | 0.0 | 0.0 | 0.00 | 0.05 | 0.00 | 92 | 1006.0 |
| 20260508195113 | 4 | 0 | 0.0 | 0.0 | 0.00 | 0.05 | 0.00 | 91 | 1006.0 |
| 20260508193612 | 4 | 0 | 0.0 | 0.0 | 0.00 | 0.05 | 0.00 | 91 | 1006.1 |
| 20260508192114 | 4 | 0 | 0.0 | 0.0 | 0.00 | 0.05 | 0.00 | 91 | 1005.8 |
| 20260508190612 | 5 | 0 | 0.0 | 0.0 | 0.00 | 0.05 | 0.00 | 91 | 1005.7 |
| 20260508185113 | 5 | 0 | 0.0 | 0.0 | 0.00 | 0.05 | 0.00 | 90 | 1005.6 |
| 20260508183613 | 5 | 0 | 0.0 | 0.0 | 0.00 | 0.05 | 0.00 | 89 | 1005.6 |
| 20260508182112 | 6 | 0 | 0.0 | 0.0 | 0.00 | 0.05 | 0.00 | 89 | 1005.6 |
| 20260508180613 | 6 | 0 | 0.0 | 0.0 | 0.00 | 0.05 | 0.00 | 89 | 1005.5 |
| 20260508175113 | 6 | 0 | 0.0 | 0.0 | 0.00 | 0.05 | 0.00 | 89 | 1005.3 |